Probability
0 0 0 0 0 0 0 0 0 0 0 0 0 0 0 0 0 0 0 0 0 0 0 0 0 0 0 0 0 0 0 0 0 0 0 0 0 0
0 0 0 0 0 0 0 0 0 0 0 0 0 0 0 0 0 0 0 0 0 0 0 0 0 0 0 0 0 0 0 0 0 0 0 0 0 0
0 0 0 0 0 0 0 0 0 0 0 0 0 0 0 0 0 0 0 0 0 0 0 0 0 0 0 0 0 0 0 0 0 0 0 0 0 0
0 0 0 0 0 0 0 0 0 0 0 0 0 0 0 0 0 0 0 0 0 0 0 0 0 0 0 0 0 0 0 0 0 0 0 0 0 0
0 0 0 0 0 0 0 0 0 0 0 0 0 0 0 0 0 0 0 0 0 0 0 0 0 0 0 0 0 0 0 0 0 0 0 0 0 0
0 0 0 0 0 0 0 0 0 0 0 0 0 0 0 0 0 0 0 0 0 0 0 0 0 0 0 0 0 0 0 0 0 0 0 0 0 0
0 0 0 0 0 0 0 0 0 0 0 0 0 0 0 0 0 0 0 0 0 0 0 0 0 0 0 0 0 0 0 0 0 0 0 0 0 0
0 0 0 0 0 0 0 0 0 0 0 0 0 0 0 0 0 0 0 0 0 0 0 0 0 0 0 0 0 0 0 0 0 0 0 0 0 0
0 0 0 0 0 0 0 0 0 0 0 0 0 0 0 0 0 0 0 0 0 0 0 0 0 0 0 0 0 0 0 0 0 0 0 0 0 0
0 0 0 0 0 0 0 0 0 0 0 0 0 0 0 0 0 0 0 0 0 0 0 0 0 0 0 0 0 0 0 0 0 0 0 0 0 0
0 0 0 0 0 0 0 0 0 0 0 0 0 0 0 0 0 0 0 0 0 0 0 0 0 0 0 0 0 0 0 0 0 0 0 0 0 0
0 0 0 0 0 0 0 0 0 0 0 0 0 0 0 0 0 0 0 0 0 0 0 0 0 0 0 0 0 0 0 0 0 0 0 0 0 0
0 0 0 0 0 0 0 0 0 0 0 0 0 0 0 0 0 0 0 0 0 0 0 0 0 0 0 0 0 0 0 0 0 0 0 0 0 0
0 0 0 0 0 0 0 0 0 0 0 0 0 0 0 0 0 0 0 0 0 0 0 0 0 0 0 0 0 0 0 0 0 0 0 0 0 0
0 0 0 0 0 0 0 0 0 0 0 0 0 0 0 0 0 0 0 0 0 0 0 0 0 0 0 0 0 0 0 0 0 0 0 0 0 0
0 0 0 0 0 0 0 0 0 0 0 0 0 0 0 0 0 0 0 0 0 0 0 0 0 0 0 0 0 0 0 0 0 0 0 0 0 0
0 0 0 0 0 0 0 0 0 0 0 0 0 0 0 0 0 0 0 0 0 0 0 0 0 0 0 0 0 0 0 0 0 0 0 0 0 0
0 0 0 0 0 0 0 0 0 0 0 0 0 0 0 0 0 0 0 0 0 0 0 0 0 0 0 0 0 0 0 0 0 0 0 0 0 0
0 0 0 0 0 0 0 0 0 0 0 0 0 0 0 0 0 0 0 0 0 0 0 0 0 0 0 0 0 0 0 0 0 0 0 0 0 0
0 0 0 0 0 0 0 0 0 0 0 0 0 0 0 0 0 0 0 0 0 0 0 0 0 0 0 0 0 0 0 0 0 0 0 0 0 0
0 0 0 0 0 0 0 0 0 0 0 0 0 0 0 0 0 0 0 0 0 0 0 0 0 0 0 0 0 0 0 0 0 0 0 0 0 0
0 0 0 0 0 0 0 0 0 0 0 0 0 0 0 0 0 0 0 0 0 0 0 0 0 0 0 0 0 0 0 0 0 0 0 0 0 0
0 0 0 0 0 0 0 0 0 0 0 0 0 0 0 0 0 0 0 0 0 0 0 0 0 0 0 0 0 0 0 0 0 0 0 0 0 0
Height
5705 5702 5700 5698 5695 5692 5688 5685 5682 5679 5680 5678 5673 5668 5663 5658 5653 5649 5646 5643 5639 5637 5634 5632 5630 5628 5627 5625 5624 5623 5622 5621 5620 5619 5619 5619 5619 5619
5693 5691 5689 5686 5683 5680 5677 5673 5669 5665 5663 5663 5659 5654 5649 5644 5640 5635 5632 5629 5625 5622 5620 5617 5615 5613 5611 5609 5608 5607 5605 5604 5603 5602 5601 5601 5601 5600
5682 5680 5677 5674 5671 5668 5664 5661 5656 5651 5648 5648 5644 5640 5635 5631 5627 5622 5618 5615 5612 5609 5606 5603 5600 5598 5595 5593 5592 5590 5589 5587 5586 5585 5584 5583 5583 5583
5670 5668 5665 5662 5659 5655 5651 5647 5643 5638 5633 5631 5630 5625 5621 5617 5613 5609 5605 5602 5599 5595 5592 5589 5586 5583 5580 5578 5576 5574 5572 5570 5569 5568 5567 5567 5566 5565
5658 5655 5652 5649 5645 5642 5638 5634 5629 5625 5620 5616 5614 5611 5607 5603 5599 5596 5592 5589 5585 5581 5578 5575 5572 5569 5566 5563 5561 5559 5557 5555 5553 5552 5550 5549 5548 5548
5646 5643 5639 5635 5631 5628 5624 5620 5615 5611 5607 5603 5600 5597 5594 5590 5586 5583 5580 5576 5572 5568 5565 5561 5558 5555 5552 5549 5547 5544 5542 5539 5537 5536 5534 5533 5532 5532
5633 5630 5626 5622 5618 5614 5610 5606 5602 5598 5594 5590 5587 5584 5581 5577 5573 5570 5567 5564 5560 5556 5552 5548 5544 5541 5538 5534 5531 5529 5526 5524 5522 5520 5518 5517 5516 5516
5620 5616 5612 5608 5605 5601 5597 5593 5589 5585 5581 5578 5575 5571 5568 5564 5560 5556 5553 5551 5549 5545 5539 5537 5531 5528 5524 5521 5517 5514 5511 5509 5506 5504 5503 5502 5501 5501
5606 5603 5599 5595 5591 5588 5584 5581 5577 5572 5568 5565 5562 5559 5555 5552 5548 5545 5541 5537 5534 5530 5525 5524 5519 5515 5511 5506 5503 5499 5497 5494 5492 5490 5488 5487 5486 5486
5593 5589 5585 5582 5578 5575 5572 5569 5565 5561 5556 5553 5550 5546 5543 5539 5535 5532 5528 5525 5522 5517 5511 5509 5506 5502 5498 5494 5490 5486 5483 5480 5477 5476 5474 5474 5473 5472
5579 5576 5572 5569 5566 5562 5560 5557 5554 5550 5545 5541 5537 5534 5530 5526 5522 5519 5515 5512 5510 5506 5499 5495 5492 5489 5487 5483 5479 5474 5471 5468 5465 5463 5462 5461 5460 5459
5567 5563 5560 5557 5554 5550 5547 5544 5542 5538 5534 5530 5526 5522 5518 5514 5510 5506 5502 5499 5495 5493 5489 5483 5480 5476 5475 5474 5469 5464 5460 5457 5454 5452 5450 5449 5447 5447
5554 5551 5548 5545 5542 5539 5535 5532 5529 5525 5522 5518 5515 5511 5507 5503 5498 5494 5490 5486 5483 5480 5476 5472 5469 5464 5461 5460 5459 5454 5450 5447 5444 5442 5440 5438 5437 5436
5540 5538 5536 5533 5530 5527 5523 5520 5517 5513 5510 5506 5503 5500 5496 5492 5488 5484 5480 5476 5472 5468 5465 5461 5457 5454 5451 5449 5448 5445 5441 5437 5435 5432 5431 5429 5428 5427
5527 5525 5523 5521 5518 5515 5512 5509 5505 5502 5498 5495 5492 5489 5485 5481 5478 5474 5470 5466 5463 5458 5454 5450 5447 5444 5441 5439 5437 5435 5433 5430 5427 5425 5423 5421 5420 5419
5515 5513 5511 5509 5506 5504 5501 5498 5494 5491 5487 5484 5481 5478 5474 5471 5468 5464 5461 5457 5454 5450 5445 5441 5438 5435 5433 5430 5428 5426 5424 5422 5420 5418 5416 5415 5414 5412
5503 5501 5500 5498 5495 5493 5490 5487 5483 5480 5477 5474 5471 5468 5464 5461 5458 5454 5451 5448 5444 5441 5438 5434 5430 5427 5425 5423 5421 5419 5417 5415 5413 5411 5410 5409 5408 5407
5492 5490 5489 5486 5484 5482 5479 5476 5473 5470 5467 5464 5460 5457 5454 5451 5448 5445 5441 5438 5435 5432 5429 5426 5423 5421 5419 5416 5414 5412 5410 5408 5407 5405 5403 5402 5402 5402
5481 5479 5477 5475 5473 5471 5468 5465 5462 5459 5456 5453 5450 5447 5444 5441 5438 5435 5432 5430 5427 5424 5421 5418 5415 5413 5411 5410 5408 5405 5403 5402 5400 5399 5398 5397 5396 5397
5470 5468 5466 5464 5462 5460 5457 5455 5452 5449 5446 5443 5440 5437 5434 5432 5429 5427 5424 5421 5419 5416 5414 5411 5409 5406 5404 5403 5402 5401 5397 5396 5394 5394 5393 5392 5392 5392
5460 5458 5456 5454 5452 5450 5447 5445 5442 5439 5436 5433 5430 5428 5425 5423 5421 5418 5416 5414 5412 5410 5408 5406 5403 5401 5399 5397 5397 5396 5394 5391 5390 5389 5389 5389 5389 5390
5449 5448 5446 5444 5442 5440 5437 5435 5432 5429 5426 5424 5421 5419 5417 5415 5413 5411 5410 5408 5406 5404 5402 5400 5398 5396 5395 5393 5392 5391 5390 5389 5387 5386 5385 5386 5386 5387
5439 5438 5436 5434 5432 5430 5428 5425 5423 5420 5417 5415 5413 5411 5409 5408 5406 5405 5403 5402 5400 5398 5396 5395 5394 5392 5391 5389 5388 5387 5386 5385 5385 5385 5384 5384 5384 5385
Wind_Speed
46 46 47 48 48 49 49 50 52 53 52 52 52 53 53 54 55 56 55 54 54 55 55 55 55 56 56 56 56 56 56 56 56 57 57 57 56 56
48 48 49 49 50 50 51 53 54 56 56 54 54 53 53 53 54 54 54 53 53 53 53 53 54 55 56 55 55 55 55 55 55 56 57 57 57 56
48 48 49 50 51 52 53 55 56 57 57 55 55 54 53 52 52 52 52 52 52 52 52 52 53 53 54 54 54 54 55 56 56 56 56 57 56 56
48 49 50 51 52 53 55 56 57 57 57 56 55 53 51 51 51 51 52 52 51 51 51 52 52 52 52 52 53 53 54 55 55 55 55 55 55 55
49 50 52 53 54 55 56 57 57 57 56 56 54 51 51 51 51 51 51 52 52 52 51 51 51 51 51 51 51 52 53 53 54 53 53 52 52 52
51 52 52 54 55 56 57 56 56 55 54 54 52 50 50 50 50 51 51 51 51 51 51 50 50 50 51 50 50 51 52 52 51 51 51 51 51 50
52 53 54 55 56 56 56 55 54 53 52 51 50 49 49 49 50 50 51 50 51 51 50 50 49 49 50 50 50 51 51 50 50 50 50 49 49 49
54 54 55 55 55 55 53 52 51 51 51 50 50 49 49 49 49 49 50 49 49 49 49 48 49 49 49 50 50 50 50 49 49 48 47 47 47 47
55 55 55 54 53 51 50 50 50 50 50 50 49 49 48 49 49 48 48 48 48 48 48 47 48 48 48 48 49 49 48 48 47 46 45 44 44 44
55 54 53 52 51 50 49 48 49 49 49 49 48 48 48 48 48 49 49 48 47 48 49 48 47 46 45 46 46 46 45 45 44 43 42 41 41 41
54 53 51 50 49 48 48 47 48 48 48 48 48 48 49 49 48 48 48 48 47 47 48 47 45 44 43 43 43 43 42 41 41 40 39 39 39 38
52 51 49 48 47 47 48 48 48 48 48 48 48 48 48 48 48 48 47 47 46 45 45 45 43 43 41 40 40 40 39 38 37 37 36 36 36 35
50 48 47 47 47 48 48 48 48 48 48 48 47 46 46 46 46 46 46 45 45 44 43 43 41 40 40 38 37 36 36 35 35 34 34 33 32 31
47 46 46 46 46 46 46 47 47 47 47 47 46 45 45 45 44 44 43 43 43 43 41 40 39 38 37 35 34 33 32 31 31 30 29 28 28 28
45 44 44 44 44 44 44 45 45 45 45 45 44 44 44 44 43 42 42 41 41 41 40 38 37 36 35 33 31 30 29 27 27 26 25 24 25 24
43 42 42 41 42 42 43 43 43 43 43 43 42 42 42 41 40 40 40 39 39 38 37 36 35 34 32 31 29 28 27 26 25 25 23 22 22 22
41 41 41 41 41 41 42 42 42 42 41 41 40 40 40 39 39 38 38 37 36 35 34 33 33 32 31 30 28 27 25 24 24 23 22 21 21 21
40 40 40 40 40 40 40 41 41 40 40 40 40 39 39 38 37 36 35 35 35 33 32 31 30 29 28 28 27 25 25 23 23 22 21 21 20 19
39 39 39 39 39 39 40 39 39 39 39 39 39 38 37 36 35 34 33 33 31 30 29 28 27 26 25 24 23 23 22 21 21 20 20 19 17 15
38 38 38 38 38 39 38 38 37 38 38 37 37 36 35 34 34 32 31 28 27 26 25 24 23 23 23 22 21 20 20 19 18 18 17 15 14 13
35 36 36 36 37 37 37 36 36 36 35 35 34 33 32 31 30 28 26 24 24 23 22 21 21 21 20 19 18 17 17 16 16 14 13 12 11 10
35 35 35 35 35 36 36 35 35 34 33 32 31 30 28 27 26 24 23 22 22 21 20 19 19 19 18 17 15 14 13 12 12 11 10 9 8 7
34 34 34 34 34 34 34 34 33 32 31 30 29 27 25 24 22 22 21 21 20 19 18 17 17 16 15 14 12 11 10 9 8 7 7 6 6 5
Wind_Direction
283 283 284 285 287 287 288 289 289 290 290 290 291 291 291 290 290 289 289 289 288 287 286 285 285 284 284 283 282 281 281 280 280 279 278 277 276 276
283 283 284 286 287 287 287 288 290 291 291 292 291 292 291 290 290 289 289 290 289 289 288 287 286 286 285 284 282 281 281 280 280 279 278 277 277 276
283 284 285 286 287 288 288 289 290 292 292 292 292 292 291 290 289 289 289 289 290 289 289 288 288 287 286 284 283 282 281 281 280 281 280 278 277 277
284 285 286 287 288 288 289 290 291 292 292 292 292 291 290 290 290 289 289 290 290 290 290 290 289 288 287 286 284 284 283 282 281 281 280 279 277 276
286 286 287 287 288 289 290 291 291 292 292 292 292 290 290 290 290 290 290 290 290 290 291 290 290 289 288 287 286 285 285 284 283 282 280 278 276 275
287 287 287 288 289 290 291 291 292 292 292 292 292 291 291 290 290 291 291 291 291 291 291 291 290 289 288 286 286 286 286 285 284 282 280 278 276 275
287 288 288 289 290 290 291 291 291 291 292 292 292 292 292 291 291 291 291 291 292 292 291 291 290 289 288 287 287 287 287 286 285 283 281 279 276 274
288 288 289 289 289 290 290 290 291 292 292 293 292 292 292 292 293 292 292 292 292 292 292 291 291 291 290 289 288 288 287 286 285 283 281 279 277 276
288 288 289 289 289 289 289 290 291 292 292 293 292 292 293 293 293 293 293 294 294 294 293 293 292 292 291 290 289 288 287 286 285 283 281 280 278 276
287 287 288 288 288 289 289 290 291 292 292 292 292 292 292 293 293 293 294 294 294 296 295 295 294 293 292 292 291 291 290 288 286 284 282 281 279 278
287 286 286 287 287 288 289 289 290 291 291 291 292 292 292 293 294 294 294 294 295 296 295 295 294 294 293 293 292 292 291 289 287 285 283 282 281 278
285 285 286 286 286 287 288 289 290 291 291 292 292 292 293 293 294 294 295 295 296 296 296 295 295 295 293 293 293 292 291 289 287 286 285 284 283 280
284 284 284 285 286 287 288 289 290 291 291 292 292 292 293 294 295 295 296 296 297 298 298 297 296 296 296 295 293 292 291 290 288 287 285 285 283 281
283 283 284 285 287 288 288 289 290 290 291 291 291 292 293 294 294 295 296 296 298 299 299 298 297 297 296 295 294 293 292 291 290 288 287 286 284 282
283 283 284 285 286 287 289 289 290 291 291 292 292 292 293 294 294 294 295 296 298 299 299 299 298 297 296 295 295 295 293 291 290 291 292 292 289 283
283 283 284 285 286 287 289 290 291 292 293 293 293 293 293 293 293 294 295 296 296 297 297 298 297 297 296 295 296 297 295 293 293 293 293 294 291 285
283 283 283 285 286 288 289 290 292 293 293 294 294 294 294 294 294 295 295 295 296 296 295 295 295 295 295 296 296 295 294 294 294 293 292 289 289 288
282 283 284 285 287 288 289 290 292 293 293 293 294 294 294 294 294 295 294 295 296 295 294 293 293 293 293 293 293 293 293 291 290 291 291 290 287 284
283 284 284 285 287 288 289 290 291 293 294 294 294 294 294 294 294 295 294 295 296 295 293 293 293 293 294 294 292 292 293 293 292 290 291 290 287 283
284 284 284 285 286 289 290 290 291 293 294 294 294 293 292 292 293 294 294 294 295 294 292 292 294 296 297 296 295 294 294 293 291 292 291 286 282 279
285 285 286 287 288 290 291 291 293 294 294 294 294 292 291 291 291 292 292 293 294 294 292 293 293 295 297 296 297 296 293 291 291 291 288 283 278 278
285 287 287 288 290 291 292 293 294 295 295 295 294 292 290 290 289 288 289 291 293 293 292 292 292 294 297 297 296 295 292 289 290 291 288 285 284 282
284 286 287 288 289 291 293 294 294 294 294 295 293 290 289 288 286 286 287 291 294 293 292 292 292 292 294 297 297 296 293 288 286 284 284 283 284 285